#timestamp,LO_Frequency,Hit,StdDev 
1552582815.9,286046995.8,N
1552582835.7,286046995.9,N
1552582855.6,286046996.2,N
1552582875.4,286046995.8,N
1552582895.2,286046996.0,N
1552582915.1,286046995.4,N
1552582916.0,286046995.4,N
1552582935.8,286046999.6,N
1552582955.6,286046999.3,N
1552582975.5,286047001.0,N
1552582995.3,286046999.5,N
1552583015.1,286046997.2,N
1552583035.9,286046994.9,N
1552583055.7,286046998.0,N
1552583075.6,286046997.4,N
1552583095.4,286046998.0,N
1552583115.2,286046995.2,N
1552583135.1,286046995.7,N
1552583136.0,286046995.7,N
1552583155.8,286046997.7,N
1552583175.6,286046997.5,N
1552583195.5,286046997.4,N
1552583215.3,286046997.9,N
1552583235.2,286046997.5,N
1552583255.9,286046997.9,N
1552583275.7,286046997.5,N
1552583295.6,286046997.8,N
1552583315.4,286046998.9,N
1552583335.2,286046999.0,N
1552583355.1,286047001.0,N
1552583356.0,286047001.0,N
1552583375.8,286046998.3,N
1552583395.7,286046998.5,N
1552583415.5,286047001.2,N
1552583435.3,286047004.2,N
1552583455.2,286047002.2,N
1552583475.9,286046999.0,N
1552583495.7,286046997.3,N
1552583515.6,286046995.3,N
1552583535.4,286046993.4,Y
1552583555.3,286046994.9,P
1552583575.1,286046995.3,N
1552583576.0,286046995.3,P
1552583595.8,286046997.7,N
1552583615.7,286046997.2,N
1552583635.5,286046997.6,N
1552583655.3,286046997.6,N
1552583675.2,286046996.7,N
1552583695.0,286046996.9,N
1552583695.9,286046996.9,N
1552583715.7,286046998.0,N
1552583735.6,286046997.5,N
1552583755.4,286046998.0,N
1552583775.3,286046995.6,Y
1552583795.1,286046999.3,P
1552583796.0,286046999.3,N
1552583815.8,286046999.3,N
1552583835.7,286046998.5,N
1552583855.5,286046999.3,N
1552583875.3,286047000.5,N
1552583895.2,286047000.6,N
1552583915.0,286046999.9,N
1552583915.9,286046999.9,N
1552583935.8,286047004.0,Y
1552583955.6,286047003.2,P
1552583975.4,286047003.6,N
1552583995.3,286047003.7,N
1552584015.1,286047003.1,N
1552584035.8,286047001.5,N
1552584055.7,286047002.0,N
1552584075.5,286047000.0,N
1552584095.4,286047002.7,N
1552584115.2,286047000.0,N
1552584135.0,286046998.1,N
1552584135.9,286046998.1,N
1552584155.8,286046998.3,N
1552584175.6,286046996.7,N
1552584195.4,286046997.2,N
1552584215.3,286046996.9,N
1552584235.1,286046999.6,N
1552584255.9,286046999.6,N
1552584275.7,286046996.8,N
1552584295.5,286046996.9,N
1552584315.4,286047000.7,N
1552584335.2,286047000.8,N
1552584355.0,286047001.1,N
1552584355.9,286047001.1,N
1552584375.8,286047001.5,N
1552584395.6,286047001.7,N
1552584415.4,286047003.8,N
1552584435.3,286047005.7,N
1552584455.1,286047003.8,N
1552584475.9,286047003.5,N
1552584495.7,286047003.7,N
1552584515.5,286047004.1,N
1552584535.4,286047002.7,N
1552584555.2,286047002.4,N
1552584575.0,286047002.3,N
1552584575.9,286047002.3,N
1552584595.8,286047000.7,N
1552584615.6,286047000.4,N
1552584635.4,286047000.0,N
1552584655.3,286047000.3,N
1552584675.1,286047001.0,N
1552584695.9,286047000.1,N
1552584715.7,286047002.3,N
1552584735.5,286047001.8,N
1552584755.4,286047002.4,N
1552584775.2,286047000.8,N
1552584795.1,286047000.7,N
1552584796.0,286047000.7,N
1552584815.8,286046998.8,N
1552584835.6,286046999.3,N
1552584855.5,286046998.7,N
1552584875.3,286046998.3,N
1552584895.1,286047000.4,N
1552584915.9,286047000.6,N
1552584935.7,286046999.9,N
1552584955.6,286047000.3,N
1552584975.4,286047004.2,N
1552584995.2,286047004.1,N
1552585015.1,286047005.2,Y
1552585016.0,286047005.2,P
1552585035.8,286047001.4,N
1552585055.6,286047002.0,N
1552585075.5,286047001.9,N
1552585095.3,286047002.0,N
1552585115.2,286047002.0,N
1552585135.9,286047000.6,N
1552585155.7,286047001.0,N
1552585175.6,286047000.7,N
1552585195.4,286047000.5,N
1552585215.2,286046999.9,N
1552585235.1,286047004.1,Y
1552585236.0,286047004.1,P
1552585255.8,286047000.6,N
1552585275.7,286047004.3,N
1552585295.5,286047004.4,N
1552585315.3,286047002.3,N
1552585335.2,286047000.8,N
1552585355.0,286046997.0,N
1552585355.9,286046997.0,N
1552585375.7,286046997.3,N
1552585395.6,286046997.0,N
1552585415.4,286046998.9,N
1552585435.3,286046999.3,N
1552585455.1,286046997.0,N
1552585456.0,286046997.0,N
1552585475.8,286046999.3,N
1552585495.7,286046996.5,N
1552585515.5,286046999.1,N
1552585535.3,286047000.7,N
1552585555.2,286047002.8,N
1552585575.0,286046999.7,N
1552585575.9,286046999.7,N
1552585595.7,286047002.6,N
1552585615.6,286047004.1,N
1552585635.4,286047002.2,N
1552585655.3,286047002.8,N
1552585675.1,286047001.0,N
1552585676.0,286047001.0,N
1552585695.8,286046999.9,N
1552585715.7,286047002.3,N
1552585735.5,286047000.6,N
1552585755.3,286047002.1,N
1552585775.2,286046998.5,N
1552585795.0,286046996.6,N
1552585795.9,286046996.6,N
1552585815.8,286046997.8,N
1552585835.6,286046997.1,N
1552585855.4,286046996.6,N
1552585875.3,286046997.2,N
1552585895.1,286046996.6,N
1552585915.8,286046999.1,N
1552585935.7,286046999.3,N
1552585955.5,286046998.8,N
1552585975.3,286047001.0,N
1552585995.2,286047001.2,N
1552586015.0,286046997.1,N
1552586015.9,286046997.1,N
1552586035.8,286046996.8,N
1552586055.6,286046995.7,N
1552586075.4,286046995.6,N
1552586095.3,286046994.3,N
1552586115.1,286046990.4,Y
1552586135.9,286046992.7,P
1552586155.7,286046992.5,N
1552586175.5,286046990.4,P
1552586195.4,286046991.8,N
1552586215.2,286046993.6,N
1552586235.0,286046994.2,N
1552586235.9,286046994.2,N
1552586255.8,286046995.7,N
1552586275.6,286046995.1,N
1552586295.4,286046995.2,N
1552586315.3,286046998.0,N
1552586335.1,286046998.0,N
1552586355.9,286046995.3,N
1552586375.7,286046995.0,N
1552586395.5,286046997.8,N
